SITRO-AIS 27

Last updated on Tue Jul 01 2025 00:03:45 GMT+0000 (Coordinated Universal Time)

1 59068U 24039T 25181.57495600 .00004208 00000+0 35293-3 0 9997 2 59068 95.3769 354.3817 0156796 113.3326 248.4483 14.89492331 72324
UTC large
Height (km)
Speed (km/s)
/
Latitude / Longitude
Inclination (degrees)
Orbital Period (minutes)
Azimuth
Elevation
Range (km)
Doppler Factor

Next 0 passes for location: London (51.5072 / 0.1276)

Sorry there are no passes over London.